Vertical_Velocity
-1 -0 0 0 0 -0 0 1 3 3 1 -0 -2 -3 -3 -2 -3 -3 -3 -2 -2 -2 -2 -2 -1 0 1 0 -0 -0 -0 -1 -1 -1 -1 -0 1 1 1 -2 -4 -4 -1 2 3 4 4 2 0 -1 -2 -3 -2 0 2 2 1 2 2 2 1 0 -0 -1 -0 -0 1 1 2
2 1 -0 -0 -0 -0 0 2 2 2 1 0 -2 -3 -3 -3 -4 -4 -4 -2 -2 -1 -1 -1 0 0 0 -0 -0 0 -0 -2 -2 -2 -1 -1 0 1 1 -1 -3 -3 -2 1 3 4 4 2 -0 -2 -3 -3 -1 0 1 2 2 2 2 2 1 1 0 0 -0 0 0 1 1
2 1 0 -0 -1 -1 -0 0 -1 -1 -1 -1 -2 -2 -2 -2 -3 -3 -3 -2 -0 0 0 -0 -0 -0 -0 -0 0 0 -0 -2 -2 -1 -1 -1 -0 1 1 1 -0 -1 -1 1 3 4 3 2 -0 -2 -2 -2 -2 -1 0 2 2 2 2 1 1 1 1 1 1 1 0 -0 -1
1 1 0 -1 -2 -2 -2 -3 -3 -3 -3 -3 -2 -1 -1 -1 -1 -1 -0 1 2 1 0 -0 -0 0 0 1 0 0 -0 -1 -1 -1 -1 -1 -1 0 1 2 1 1 0 1 2 2 2 2 2 1 -0 -1 -1 -1 0 2 2 2 2 2 2 2 2 2 2 2 1 -1 -2
-0 -0 -1 -1 -1 -1 -1 -2 -3 -3 -3 -3 -2 -1 -1 -1 -0 0 1 2 1 0 -0 1 1 1 1 1 1 1 0 -0 -0 -0 -0 -1 -1 -0 1 2 2 2 2 1 -0 -0 0 2 3 3 1 0 -0 0 2 3 3 2 2 2 1 1 2 3 2 1 0 -1 -1
-1 0 1 2 2 2 1 -0 -1 -3 -3 -3 -3 -3 -2 -2 -1 -1 -0 -1 -1 -0 1 2 2 2 2 2 2 1 1 -0 -0 -0 -0 -0 -1 -0 1 2 3 3 3 1 -2 -2 -1 2 3 3 2 2 2 3 4 4 3 2 1 0 0 1 2 2 1 0 -0 -1 -0
1 3 4 6 6 4 2 0 -0 -1 -2 -3 -3 -3 -3 -3 -3 -2 -2 -1 0 1 1 1 1 1 1 1 1 1 0 -0 -0 -0 -0 -0 -0 0 0 1 3 3 2 -0 -2 -3 -1 1 2 2 2 2 3 4 4 3 2 1 0 -1 -0 0 1 0 0 -0 -0 -1 -0
6 7 7 7 6 4 2 -0 -0 -1 -1 -2 -2 -2 -2 -2 -2 -1 -0 1 0 -0 -0 -0 0 0 0 0 -0 -0 -0 -0 -0 -0 -0 -0 0 0 1 1 2 2 1 -1 -2 -2 -1 -0 -0 -0 0 2 3 3 3 2 1 0 -0 -0 0 1 1 0 -0 -0 -0 -1 -1
8 7 6 6 4 2 0 -1 -2 -3 -3 -2 -2 -1 -0 0 0 1 0 0 -1 -0 0 0 0 1 1 0 0 -0 -1 -1 -1 -1 -1 -0 0 1 1 1 1 1 0 0 -0 -1 -1 -1 -1 -2 -1 1 1 1 2 2 1 1 0 0 0 0 0 0 0 0 0 -0 -1
5 4 3 2 1 -0 -2 -3 -3 -3 -3 -2 -1 1 1 2 1 1 0 -0 1 1 1 0 1 2 1 1 0 -0 -0 -1 -1 -1 -1 -0 -0 -0 0 -0 -0 0 1 1 1 1 1 -0 -1 -1 -1 -0 0 1 2 2 2 1 0 0 0 0 0 -0 0 1 0 -0 -1
6 4 1 0 -0 -1 -2 -3 -2 -2 -2 -1 0 1 1 1 1 1 1 1 2 1 1 0 1 1 1 0 0 -0 -0 -0 -0 -0 -0 -1 -1 -0 -0 -1 -0 0 1 1 2 2 1 0 -0 -1 -1 -1 -0 1 2 2 2 1 0 0 0 1 0 0 0 0 0 -0 -0
7 6 3 1 0 -1 -1 -2 -2 -2 -2 -2 -1 -0 -0 0 1 1 2 2 1 1 1 1 1 1 1 0 0 0 -0 -0 -0 -0 -0 -1 -0 -0 -0 -0 0 1 1 2 2 2 1 0 -1 -1 -1 -1 -0 0 1 2 2 1 0 0 1 1 1 0 -0 -0 -0 -0 0
2 3 2 -1 -1 -1 -1 -1 -2 -2 -2 -2 -1 -1 -1 -0 1 1 1 1 1 1 2 2 2 1 1 0 0 -0 -0 -0 -0 -0 -0 -0 -0 0 0 0 0 1 1 2 2 1 0 -1 -1 -2 -2 -1 -1 -0 0 1 1 0 0 1 1 0 -0 -1 -1 -0 -0 0 0
-4 -1 -0 -2 -2 -2 -2 -1 -1 -2 -2 -2 -1 -1 -1 0 1 1 1 1 2 2 2 1 1 1 1 0 0 -0 -0 -0 -0 -0 -0 -0 -0 0 0 0 0 1 1 2 2 1 0 -1 -2 -2 -2 -1 -1 -0 0 1 0 0 1 1 0 -1 -1 -1 -1 -0 0 0 0
-6 -3 -0 -1 -2 -2 -2 -1 -1 -1 -1 -1 -1 -0 -0 -0 0 1 1 2 2 2 2 1 1 1 1 1 1 1 0 0 -0 -0 -0 -0 0 0 1 1 1 1 2 2 2 1 -0 -1 -2 -2 -1 -1 -1 -0 1 1 1 1 1 1 -0 -1 -1 -0 -0 -0 -0 -0 -0
-3 -2 -0 1 -1 -2 -2 -2 -1 -1 -0 0 0 0 0 -0 0 0 1 1 2 2 1 0 0 1 1 1 1 1 1 0 -0 -0 -1 -0 0 1 1 1 1 1 1 1 1 0 -0 -1 -1 -1 -0 -0 -0 0 1 1 1 1 1 0 0 0 0 0 0 -0 -0 -0 -0
2 1 1 2 0 -1 -1 -1 -1 -0 0 0 0 0 0 0 -0 -0 0 0 1 0 -0 -0 1 1 1 1 1 0 -0 -1 -1 -1 -1 -1 0 1 1 1 1 1 1 1 1 -0 -1 -1 -1 -0 0 0 1 1 2 2 1 1 1 1 1 1 1 1 1 1 1 1 0
5 4 4 3 -1 -1 0 1 0 0 0 1 0 0 0 -0 -0 -0 -0 -0 -0 -0 -0 0 1 2 2 1 -0 -1 -2 -2 -2 -1 -1 -0 1 1 2 2 2 2 2 1 0 -0 -1 -1 -1 0 1 1 2 2 2 2 1 1 1 2 2 2 2 2 2 2 2 1 1
7 8 8 6 -0 -1 1 3 3 2 1 1 1 0 0 -0 -0 -1 -1 -0 -1 -0 -0 0 1 2 2 2 0 -1 -1 -2 -2 -1 -0 1 2 2 3 3 3 2 2 1 0 -0 -1 -1 -0 0 1 1 2 3 3 3 2 2 2 2 2 2 2 2 2 2 1 1 0
11 11 11 10 6 4 3 6 6 5 4 2 2 1 0 -0 -1 -1 -1 -2 -1 -1 0 1 1 2 2 2 1 0 -0 -0 -0 0 1 1 1 2 2 2 2 2 2 1 0 -0 -0 -0 -0 0 1 2 2 3 3 3 2 2 2 2 1 2 2 2 2 1 -0 -1 -1
9 8 9 10 11 9 7 7 8 7 6 4 3 1 0 -1 -1 -2 -2 -2 -1 -1 0 1 1 1 1 1 1 1 1 1 0 0 1 1 1 1 2 2 2 2 2 1 -0 -1 -1 -0 0 1 1 2 2 2 2 2 2 2 1 1 1 2 2 2 1 -0 -1 -1 -0
6 7 8 7 8 8 8 6 4 4 4 5 4 2 1 -0 -1 -1 -1 -0 -0 -0 -0 0 1 1 1 1 0 1 1 1 0 0 1 1 1 2 2 2 2 2 1 0 -1 -1 -1 0 1 1 2 2 2 2 2 2 2 2 1 1 1 2 3 2 -0 -1 -1 -1 0
3 6 7 4 2 2 3 2 -1 -2 -2 1 3 3 2 1 1 1 1 1 0 -0 -1 -0 -0 0 0 1 1 1 1 1 0 0 1 1 2 2 2 2 2 1 0 -1 -2 -1 -0 0 1 1 1 1 1 1 1 2 2 2 2 1 2 3 2 0 -1 -1 -1 -1 -0
-4 -0 3 3 1 0 0 -0 -2 -5 -6 -4 -0 2 2 3 3 3 2 2 1 -0 -0 -1 -1 -0 0 1 1 1 1 0 0 0 1 1 1 1 1 1 1 1 -0 -1 -2 -2 -1 -0 0 0 0 0 1 1 2 2 2 2 2 2 3 2 1 -1 -1 -2 -1 -1 -1
-3 -3 -0 2 2 1 -0 -0 -2 -4 -5 -4 -1 1 2 4 4 3 2 1 1 0 -0 -1 -1 -0 0 1 1 1 0 0 0 0 1 1 1 1 1 1 1 1 0 -1 -1 -1 -0 -0 -0 -1 -1 -0 1 1 2 2 2 2 2 3 2 1 -1 -2 -3 -3 -2 -1 0
1 -1 -1 0 1 1 0 -1 -1 -2 -2 -1 0 1 2 3 3 3 2 1 0 0 -0 -0 -0 -0 -0 -0 -0 0 0 0 1 1 1 1 1 1 1 1 1 1 0 -0 -0 0 1 0 0 -0 -0 0 1 1 2 2 2 2 3 3 2 -0 -1 -3 -4 -4 -2 -0 1
2 0 -0 -1 1 1 1 -1 -1 -0 1 1 1 1 2 3 3 3 2 0 0 0 1 0 -0 -0 -0 -0 -0 -1 -1 -0 0 1 2 2 2 1 1 2 2 1 0 1 1 1 0 0 0 1 1 1 2 1 1 1 1 1 2 3 1 -1 -2 -2 -3 -4 -3 -1 0
3 1 -0 -2 -1 0 1 2 0 -0 0 0 -1 -1 0 2 3 2 1 1 1 1 1 1 0 0 1 0 -1 -1 -1 -0 0 1 2 3 3 3 2 2 1 1 1 2 2 1 -0 -0 0 1 1 2 2 2 2 1 0 0 1 2 0 -1 -2 -2 -2 -3 -3 -1 -1
5 4 3 -0 -2 -2 -0 2 1 -1 -1 0 -1 -2 -2 -0 1 1 2 2 2 1 0 -0 0 1 0 -1 -1 -0 0 1 1 1 2 3 3 3 3 2 1 2 3 4 2 0 -1 -1 1 1 2 2 2 3 3 2 1 1 1 0 -1 -2 -3 -2 -2 -2 -2 -2 -2
5 6 6 4 1 -2 -3 -2 -1 -0 -0 1 2 1 -1 -1 0 1 2 2 1 0 -1 -0 -0 -1 -2 -2 -1 0 1 1 2 2 2 2 2 2 2 1 2 3 3 4 2 0 -1 -0 1 2 2 2 2 2 2 1 1 1 0 -0 -2 -3 -3 -3 -2 -2 -2 -2 -1
3 4 5 5 3 1 -2 -4 -2 -0 1 1 2 2 1 0 -0 -0 -0 0 1 2 2 2 0 -2 -3 -1 0 1 1 1 2 2 1 1 1 1 1 1 2 3 4 3 2 1 -0 0 1 2 2 2 2 1 1 1 1 1 1 -0 -2 -2 -3 -3 -2 -2 -1 -1 -1
1 2 3 4 3 2 1 -0 -1 -0 0 -1 -0 0 1 1 -1 -1 -1 -0 1 3 4 3 0 -1 -1 -0 1 1 2 2 2 1 1 1 1 1 0 1 2 3 3 3 2 1 1 0 1 2 2 1 1 1 1 1 2 2 2 1 -0 -1 -1 -2 -2 -1 -0 0 0
1 1 2 2 3 3 3 2 -0 -1 -2 -3 -3 -2 -0 1 0 1 0 0 0 1 1 0 -1 -1 -1 -1 -0 1 2 2 1 1 1 2 1 0 0 1 2 3 3 3 3 2 1 0 1 1 1 1 1 1 1 2 2 3 3 2 1 0 -1 -1 -1 0 1 2 2
1 0 0 1 2 3 3 2 1 -1 -3 -4 -4 -3 -1 1 2 1 0 -1 -2 -3 -4 -3 -1 -1 -2 -2 -1 0 1 2 2 2 2 1 0 0 1 1 1 2 2 3 3 2 1 -1 -1 -1 -0 0 1 1 1 1 2 3 3 3 2 1 -0 0 1 2 2 3 2
0 -0 0 1 2 2 3 3 2 -0 -2 -4 -4 -4 -3 -1 -0 0 -0 -0 -1 -3 -5 -5 -2 1 2 2 2 2 2 2 2 1 1 0 0 0 1 1 1 2 2 3 3 2 1 -1 -2 -2 -1 -1 0 0 1 1 2 3 3 3 2 1 1 1 2 3 3 3 2
-1 -1 -0 1 1 1 2 3 2 1 -1 -3 -3 -3 -3 -2 -1 0 1 2 1 -2 -4 -5 -3 -0 2 2 2 2 2 1 1 1 0 -0 0 1 1 1 1 1 2 3 2 2 1 -0 -1 -2 -2 -1 -0 0 1 1 2 3 3 3 2 2 2 2 2 2 2 2 2
-1 -1 -1 0 1 1 1 2 2 1 -1 -2 -2 -2 -1 -1 0 1 1 1 0 -1 -2 -4 -4 -4 -3 -1 -0 -0 -1 -1 0 0 0 -0 0 1 1 1 1 1 2 2 2 1 1 0 -0 -1 -1 -1 -1 -0 1 2 2 2 3 3 2 2 2 2 2 2 2 2 2
0 -1 -1 -0 1 2 1 1 1 -1 -2 -3 -2 -0 1 2 2 1 0 -1 -1 -1 -1 -1 -4 -6 -6 -3 -1 -1 -2 -1 -0 0 0 0 1 1 1 0 0 1 1 1 1 1 0 0 -0 -0 -0 -0 -1 -0 0 1 1 1 2 2 2 2 2 2 3 3 3 4 4
0 -0 -2 -2 -0 1 1 0 -0 -1 -1 -1 -1 1 2 4 2 1 -1 -1 -1 -1 0 1 0 -1 -2 -1 0 -0 -1 -1 -0 0 1 1 1 1 2 1 1 1 1 1 1 0 0 0 1 1 1 1 1 1 1 1 1 1 1 2 2 2 2 3 4 4 4 4 4
0 -1 -2 -3 -2 -0 0 0 -0 0 1 1 1 0 1 2 2 1 1 2 2 1 0 2 3 3 2 1 0 -1 -1 -0 1 1 2 2 2 3 3 3 2 2 1 1 0 0 1 1 1 2 2 2 2 2 2 2 2 2 2 2 2 2 3 4 4 5 5 4 2
0 -1 -2 -3 -2 -0 0 0 0 2 3 3 2 1 1 3 4 4 3 4 3 2 1 1 1 2 2 2 0 -0 -0 1 1 2 3 4 3 4 4 4 3 3 2 1 1 1 1 1 1 1 1 2 2 2 2 3 3 3 2 2 2 3 3 3 4 4 4 2 1
Height
1405 1406 1408 1409 1411 1413 1413 1414 1415 1415 1416 1417 1418 1419 1421 1423 1424 1425 1427 1428 1429 1431 1432 1433 1434 1435 1436 1437 1439 1440 1441 1443 1444 1446 1448 1449 1451 1453 1454 1455 1457 1458 1459 1460 1461 1463 1464 1465 1467 1468 1469 1470 1471 1472 1473 1474 1474 1475 1476 1477 1478 1479 1479 1480 1481 1482 1483 1484 1484
1405 1407 1408 1410 1411 1412 1413 1414 1415 1415 1416 1417 1418 1419 1421 1423 1424 1426 1427 1429 1429 1431 1432 1433 1434 1435 1436 1437 1439 1440 1441 1443 1444 1446 1448 1449 1451 1452 1454 1455 1456 1458 1459 1460 1461 1462 1464 1465 1466 1467 1468 1469 1470 1471 1472 1473 1474 1474 1475 1476 1477 1478 1479 1480 1481 1481 1482 1483 1484
1406 1407 1409 1410 1411 1412 1412 1413 1414 1415 1416 1417 1419 1420 1422 1424 1425 1426 1428 1429 1430 1431 1432 1433 1434 1435 1436 1437 1439 1440 1441 1442 1444 1445 1447 1449 1450 1452 1453 1454 1456 1457 1459 1460 1461 1462 1463 1464 1465 1466 1467 1468 1469 1470 1471 1472 1473 1474 1474 1475 1476 1477 1478 1479 1480 1481 1481 1482 1483
1407 1408 1409 1409 1410 1411 1412 1413 1414 1415 1416 1418 1419 1421 1423 1424 1425 1427 1428 1429 1430 1431 1432 1433 1434 1435 1436 1437 1439 1439 1441 1442 1444 1445 1447 1448 1450 1451 1453 1454 1455 1457 1458 1459 1461 1462 1463 1464 1464 1465 1466 1467 1469 1469 1470 1471 1472 1473 1474 1475 1476 1477 1478 1479 1479 1480 1481 1481 1482
1408 1409 1409 1409 1410 1411 1412 1413 1414 1415 1417 1419 1420 1422 1423 1425 1426 1427 1428 1429 1430 1431 1432 1433 1434 1435 1436 1438 1439 1439 1441 1442 1443 1445 1446 1448 1449 1451 1452 1454 1455 1456 1458 1459 1460 1461 1462 1463 1464 1465 1466 1467 1468 1469 1470 1471 1472 1473 1474 1474 1475 1476 1477 1478 1479 1479 1480 1480 1481
1408 1409 1409 1410 1410 1411 1412 1413 1414 1416 1418 1419 1421 1422 1424 1424 1426 1427 1428 1429 1429 1431 1432 1433 1434 1435 1436 1438 1439 1439 1441 1442 1443 1444 1446 1448 1449 1450 1452 1453 1454 1456 1457 1459 1460 1461 1462 1463 1464 1464 1465 1466 1467 1468 1469 1470 1471 1472 1473 1474 1475 1476 1477 1478 1478 1479 1479 1479 1480
1408 1409 1409 1409 1410 1411 1412 1414 1415 1417 1418 1419 1421 1422 1423 1424 1425 1426 1427 1428 1429 1430 1431 1433 1434 1435 1436 1437 1438 1439 1440 1442 1443 1444 1446 1447 1449 1450 1451 1453 1454 1455 1457 1458 1459 1460 1461 1463 1463 1464 1465 1466 1467 1468 1469 1469 1470 1471 1473 1474 1474 1475 1476 1477 1477 1478 1478 1479 1479
1408 1409 1409 1409 1410 1411 1412 1414 1415 1417 1419 1420 1421 1422 1423 1424 1425 1426 1427 1428 1429 1430 1431 1432 1433 1434 1435 1436 1438 1439 1440 1441 1443 1444 1445 1446 1448 1449 1450 1452 1453 1455 1456 1457 1458 1459 1461 1462 1463 1464 1464 1465 1466 1467 1468 1469 1470 1471 1472 1473 1474 1474 1475 1476 1477 1477 1477 1478 1479
1409 1409 1409 1410 1411 1412 1413 1414 1416 1417 1419 1420 1421 1422 1423 1424 1425 1426 1427 1428 1429 1430 1431 1432 1433 1434 1435 1436 1437 1438 1439 1441 1442 1443 1444 1446 1447 1449 1450 1451 1453 1454 1455 1456 1458 1459 1460 1461 1462 1463 1464 1464 1465 1466 1467 1468 1469 1470 1471 1472 1473 1474 1474 1475 1476 1476 1477 1477 1478
1409 1409 1410 1411 1412 1413 1414 1415 1417 1418 1419 1420 1421 1422 1423 1424 1424 1425 1426 1427 1429 1429 1430 1431 1432 1433 1434 1435 1436 1437 1439 1440 1441 1443 1444 1445 1447 1448 1449 1450 1452 1453 1454 1455 1457 1458 1459 1460 1461 1462 1463 1464 1465 1466 1466 1467 1468 1469 1470 1471 1472 1473 1474 1474 1474 1475 1475 1476 1477
1409 1410 1410 1411 1412 1413 1414 1416 1417 1418 1419 1420 1421 1422 1423 1423 1424 1425 1426 1427 1428 1429 1430 1431 1432 1433 1433 1434 1435 1437 1438 1439 1440 1442 1443 1444 1446 1447 1448 1449 1451 1452 1454 1455 1456 1457 1458 1459 1460 1461 1462 1463 1464 1465 1466 1466 1467 1468 1469 1470 1471 1472 1473 1473 1474 1474 1474 1475 1475
1409 1410 1411 1411 1412 1414 1415 1416 1417 1419 1419 1420 1421 1422 1422 1423 1424 1425 1426 1427 1428 1428 1429 1430 1431 1432 1433 1434 1435 1436 1437 1439 1440 1441 1442 1444 1445 1446 1448 1449 1450 1451 1453 1454 1455 1456 1457 1458 1459 1460 1461 1462 1463 1464 1465 1465 1466 1467 1468 1469 1470 1471 1471 1472 1473 1473 1473 1474 1474
1409 1410 1411 1412 1413 1414 1415 1416 1417 1418 1419 1420 1421 1421 1422 1423 1424 1424 1425 1426 1427 1428 1429 1429 1430 1431 1432 1433 1434 1435 1437 1438 1439 1440 1442 1443 1444 1446 1447 1448 1449 1451 1452 1453 1454 1455 1456 1457 1458 1459 1460 1461 1462 1463 1464 1464 1465 1466 1467 1468 1469 1470 1470 1471 1471 1472 1472 1473 1473
1409 1411 1412 1413 1414 1414 1415 1416 1417 1418 1419 1419 1420 1421 1422 1422 1423 1424 1425 1426 1426 1427 1428 1429 1430 1431 1432 1433 1434 1435 1436 1437 1439 1440 1441 1442 1444 1445 1446 1447 1449 1450 1451 1452 1454 1454 1455 1456 1457 1458 1459 1460 1461 1462 1463 1464 1464 1465 1466 1467 1468 1469 1469 1470 1470 1470 1471 1471 1472
1409 1411 1413 1414 1414 1415 1415 1416 1417 1418 1418 1419 1420 1420 1421 1422 1423 1424 1424 1425 1426 1427 1428 1429 1429 1430 1431 1432 1433 1434 1435 1437 1438 1439 1440 1442 1443 1444 1445 1446 1448 1449 1450 1451 1452 1453 1454 1455 1456 1458 1459 1459 1460 1461 1462 1463 1464 1464 1465 1466 1467 1468 1468 1469 1469 1469 1469 1470 1470
1409 1411 1412 1413 1414 1414 1415 1416 1416 1417 1418 1418 1419 1420 1421 1421 1422 1423 1424 1425 1426 1427 1428 1428 1429 1430 1431 1432 1433 1434 1435 1436 1437 1439 1439 1441 1442 1443 1444 1445 1447 1448 1449 1450 1451 1452 1453 1454 1455 1457 1458 1459 1459 1460 1461 1462 1463 1464 1465 1465 1466 1466 1467 1467 1468 1468 1468 1469 1469
1409 1410 1411 1412 1413 1414 1415 1415 1416 1416 1417 1418 1419 1419 1420 1421 1422 1423 1424 1424 1425 1426 1427 1428 1429 1429 1430 1431 1432 1433 1434 1435 1437 1438 1439 1440 1441 1442 1443 1444 1446 1447 1448 1449 1450 1451 1452 1454 1455 1456 1457 1458 1459 1459 1460 1461 1462 1463 1464 1464 1465 1465 1466 1466 1466 1467 1467 1468 1468
1409 1410 1411 1411 1412 1413 1414 1414 1415 1416 1416 1417 1418 1419 1419 1420 1421 1422 1423 1424 1425 1426 1427 1428 1429 1429 1430 1431 1432 1433 1434 1435 1436 1437 1438 1439 1440 1442 1443 1444 1445 1446 1447 1449 1449 1450 1451 1453 1454 1455 1456 1457 1458 1459 1460 1461 1462 1463 1463 1464 1464 1464 1464 1465 1465 1466 1466 1467 1468
1409 1410 1411 1411 1412 1413 1414 1414 1415 1415 1416 1417 1418 1418 1419 1420 1421 1422 1423 1424 1424 1425 1427 1427 1428 1429 1429 1430 1431 1432 1433 1434 1435 1436 1438 1439 1440 1441 1442 1443 1444 1446 1447 1448 1449 1450 1451 1452 1453 1454 1455 1456 1458 1459 1460 1461 1461 1462 1462 1463 1463 1463 1464 1464 1465 1465 1465 1466 1467
1409 1410 1411 1412 1412 1412 1413 1414 1414 1415 1416 1417 1418 1418 1419 1420 1421 1422 1423 1424 1424 1425 1426 1427 1428 1429 1429 1430 1431 1432 1433 1434 1435 1436 1437 1439 1439 1441 1442 1443 1444 1445 1446 1447 1448 1449 1450 1451 1452 1453 1454 1455 1457 1458 1459 1460 1461 1461 1461 1462 1462 1463 1463 1464 1464 1464 1464 1465 1466
1409 1410 1411 1412 1413 1413 1413 1414 1415 1415 1416 1417 1418 1419 1419 1420 1421 1422 1423 1423 1424 1425 1426 1427 1427 1428 1429 1430 1431 1432 1433 1434 1435 1436 1437 1438 1439 1440 1441 1442 1443 1444 1445 1446 1447 1448 1449 1450 1451 1452 1454 1455 1456 1457 1458 1459 1460 1460 1461 1461 1461 1462 1462 1463 1463 1463 1464 1464 1465
1409 1410 1411 1411 1412 1413 1413 1414 1415 1416 1417 1417 1418 1419 1419 1420 1421 1422 1423 1424 1424 1425 1425 1426 1427 1428 1429 1429 1430 1432 1433 1434 1435 1436 1437 1438 1439 1440 1441 1442 1443 1444 1444 1445 1446 1447 1448 1449 1450 1451 1453 1454 1455 1457 1457 1458 1459 1459 1460 1460 1460 1461 1462 1462 1462 1462 1463 1463 1464
1409 1410 1410 1411 1411 1412 1413 1414 1415 1416 1417 1418 1419 1419 1420 1420 1421 1422 1423 1423 1424 1424 1425 1426 1427 1428 1429 1429 1431 1432 1433 1434 1435 1436 1437 1438 1439 1439 1440 1441 1442 1443 1444 1444 1445 1446 1447 1448 1449 1451 1452 1453 1454 1455 1456 1457 1458 1459 1459 1459 1460 1460 1461 1461 1461 1462 1462 1463 1464
1409 1409 1410 1411 1411 1412 1413 1414 1414 1415 1416 1417 1418 1419 1420 1421 1421 1422 1423 1423 1424 1424 1425 1426 1427 1428 1429 1429 1431 1432 1433 1434 1434 1435 1436 1437 1438 1439 1439 1440 1441 1442 1442 1443 1444 1444 1446 1447 1448 1450 1451 1452 1454 1454 1455 1456 1457 1458 1458 1459 1459 1459 1460 1460 1460 1461 1461 1462 1463
1409 1409 1410 1410 1411 1411 1412 1413 1414 1415 1416 1417 1418 1419 1420 1421 1421 1422 1422 1423 1424 1424 1425 1426 1427 1428 1429 1429 1430 1431 1432 1433 1434 1435 1436 1436 1437 1438 1439 1439 1440 1440 1441 1442 1443 1444 1445 1446 1447 1449 1450 1451 1452 1454 1454 1455 1456 1457 1457 1458 1458 1459 1459 1459 1460 1460 1461 1462 1463
1408 1409 1409 1410 1411 1411 1412 1413 1414 1414 1415 1417 1418 1419 1419 1420 1421 1422 1422 1423 1424 1424 1425 1426 1427 1427 1428 1429 1430 1431 1432 1433 1434 1434 1435 1436 1436 1437 1438 1438 1439 1439 1440 1440 1442 1443 1444 1445 1447 1448 1449 1450 1452 1453 1454 1454 1455 1456 1456 1457 1457 1458 1458 1459 1459 1460 1460 1461 1462
1408 1409 1409 1410 1410 1411 1412 1412 1413 1414 1415 1416 1417 1418 1419 1419 1420 1421 1422 1422 1423 1424 1425 1425 1426 1427 1428 1429 1429 1430 1431 1432 1433 1434 1435 1435 1436 1436 1437 1437 1438 1438 1439 1439 1441 1442 1444 1445 1446 1447 1449 1450 1451 1452 1453 1454 1454 1454 1455 1456 1456 1457 1458 1458 1459 1459 1460 1461 1462
1409 1409 1409 1409 1410 1410 1411 1412 1413 1414 1414 1415 1416 1417 1418 1419 1419 1420 1421 1422 1423 1424 1424 1425 1426 1427 1428 1428 1429 1430 1431 1432 1433 1434 1434 1435 1435 1436 1436 1436 1437 1437 1438 1439 1440 1441 1443 1444 1445 1447 1448 1449 1450 1451 1452 1452 1453 1454 1454 1455 1456 1456 1457 1458 1458 1459 1459 1460 1461
1409 1408 1409 1409 1409 1410 1410 1411 1412 1413 1414 1414 1415 1416 1417 1418 1419 1419 1420 1421 1422 1423 1424 1424 1425 1426 1427 1427 1428 1429 1430 1431 1432 1433 1434 1434 1435 1435 1435 1435 1436 1436 1437 1438 1439 1441 1442 1444 1445 1446 1447 1449 1449 1450 1451 1451 1452 1453 1453 1454 1455 1456 1456 1457 1458 1458 1459 1460 1461
1408 1408 1408 1408 1408 1409 1409 1410 1411 1412 1413 1414 1414 1415 1416 1417 1417 1418 1419 1420 1421 1422 1423 1424 1424 1425 1426 1427 1428 1429 1429 1430 1431 1432 1433 1434 1434 1434 1434 1435 1435 1436 1437 1438 1439 1440 1442 1443 1444 1445 1447 1448 1449 1449 1450 1450 1451 1452 1453 1454 1454 1455 1455 1456 1457 1458 1458 1459 1460
1407 1407 1407 1407 1407 1408 1408 1409 1410 1411 1412 1413 1414 1415 1415 1416 1416 1417 1418 1419 1420 1421 1422 1423 1424 1424 1425 1426 1427 1428 1429 1429 1430 1431 1432 1433 1433 1433 1434 1434 1434 1435 1436 1437 1438 1440 1441 1443 1444 1445 1446 1447 1448 1448 1449 1450 1450 1451 1452 1453 1454 1454 1454 1455 1456 1456 1457 1458 1459
1407 1407 1407 1407 1407 1407 1408 1408 1409 1410 1411 1412 1413 1414 1414 1415 1416 1416 1417 1418 1419 1420 1421 1422 1423 1424 1424 1425 1426 1427 1428 1429 1429 1430 1431 1432 1432 1432 1433 1433 1434 1435 1436 1437 1438 1439 1441 1442 1443 1444 1445 1446 1447 1448 1448 1449 1450 1451 1451 1452 1453 1453 1454 1454 1455 1455 1456 1457 1458
1406 1406 1406 1407 1407 1407 1407 1408 1408 1409 1410 1411 1412 1413 1413 1414 1415 1416 1416 1417 1418 1419 1420 1421 1422 1423 1423 1424 1425 1426 1427 1428 1429 1429 1430 1431 1431 1431 1432 1433 1433 1434 1435 1436 1437 1439 1440 1442 1443 1444 1444 1445 1446 1447 1447 1448 1449 1450 1450 1451 1452 1452 1453 1453 1454 1454 1455 1456 1456
1405 1405 1406 1406 1406 1406 1407 1407 1408 1408 1409 1410 1411 1411 1412 1413 1414 1414 1415 1416 1417 1418 1419 1420 1421 1422 1423 1424 1424 1425 1426 1427 1428 1428 1429 1429 1430 1430 1431 1432 1433 1434 1434 1436 1437 1439 1440 1441 1442 1443 1444 1444 1445 1446 1446 1447 1448 1449 1449 1450 1451 1451 1452 1452 1453 1454 1454 1455 1455
1404 1404 1405 1405 1406 1406 1406 1406 1407 1407 1408 1409 1409 1410 1411 1412 1413 1413 1414 1415 1416 1417 1418 1419 1420 1421 1422 1423 1424 1424 1425 1426 1426 1427 1428 1428 1429 1429 1430 1431 1432 1433 1434 1435 1437 1438 1439 1440 1441 1442 1443 1444 1444 1445 1445 1446 1447 1448 1448 1449 1449 1450 1450 1451 1452 1452 1453 1454 1454
1403 1404 1404 1405 1405 1405 1405 1406 1406 1406 1407 1407 1408 1409 1410 1411 1412 1412 1413 1414 1414 1415 1416 1418 1419 1420 1421 1422 1423 1424 1424 1424 1425 1426 1426 1427 1428 1429 1429 1430 1431 1432 1433 1434 1436 1437 1438 1439 1440 1441 1442 1443 1443 1444 1444 1445 1446 1446 1447 1448 1448 1449 1449 1450 1450 1451 1452 1453 1454
1402 1403 1404 1404 1404 1404 1405 1405 1405 1405 1405 1406 1407 1408 1409 1410 1411 1411 1412 1412 1413 1414 1415 1416 1417 1419 1419 1420 1421 1422 1423 1423 1424 1424 1425 1426 1427 1428 1429 1430 1431 1432 1433 1434 1435 1436 1437 1438 1439 1439 1440 1441 1442 1442 1443 1444 1444 1445 1446 1447 1447 1448 1448 1449 1449 1450 1451 1452 1453
1401 1402 1402 1403 1403 1404 1404 1404 1404 1404 1404 1405 1405 1407 1408 1409 1409 1410 1411 1411 1411 1412 1413 1414 1415 1417 1418 1419 1420 1421 1422 1422 1423 1424 1424 1425 1426 1427 1428 1429 1430 1431 1432 1433 1434 1434 1435 1436 1437 1438 1439 1440 1440 1441 1442 1442 1443 1444 1444 1445 1446 1446 1447 1448 1448 1449 1450 1452 1452
1400 1401 1401 1402 1402 1403 1403 1403 1403 1403 1404 1404 1405 1406 1407 1408 1409 1409 1409 1409 1410 1411 1412 1413 1414 1416 1417 1418 1419 1420 1421 1421 1422 1423 1423 1424 1425 1426 1427 1428 1429 1430 1431 1432 1432 1433 1434 1435 1436 1437 1438 1439 1439 1439 1440 1441 1442 1442 1443 1444 1444 1445 1445 1446 1447 1449 1450 1451 1451
1399 1399 1400 1400 1401 1401 1402 1402 1402 1403 1403 1403 1404 1405 1405 1406 1407 1408 1408 1409 1409 1410 1411 1412 1414 1415 1416 1417 1418 1419 1419 1420 1421 1422 1422 1423 1424 1425 1426 1427 1428 1429 1430 1430 1431 1432 1433 1434 1435 1436 1437 1437 1438 1439 1439 1439 1440 1441 1441 1442 1443 1444 1444 1445 1447 1448 1449 1449 1450
1399 1398 1399 1399 1399 1400 1400 1401 1401 1401 1402 1402 1403 1404 1404 1405 1406 1407 1407 1408 1408 1409 1410 1411 1413 1414 1414 1415 1416 1417 1418 1419 1420 1420 1421 1422 1423 1424 1425 1426 1427 1428 1429 1429 1430 1431 1432 1433 1434 1434 1435 1436 1437 1437 1438 1438 1439 1439 1440 1440 1441 1442 1443 1444 1446 1447 1448 1448 1449